STARLINK-5678, 55460

Orbit data source: Space-Track

STARLINK-5678, 55460 is a payload satellite owned by SpaceX/Seattle (US) in LEO that was launched on Thu, 02 Feb 2023 UTC via an FALCON 9 launch vehicle from the Air Force Eastern Test Range (AFETR). Payload-class satellites include a variety of spacecraft equipped with specific instruments for various scientific and technological missions. These include communications satellites like Starlink; space stations such as the ISS; scientific satellites like the Hubble; Earth observation satellites from companies like Planet Labs, Umbra, and HawkEye 360; GPS; miniature CubeSats for education and research; and military/defense satellites.

Loading next visibility...
Identifier
55460, 2023-015M
Orbit
LEO
Country
Flag of USUS
Related business
Manufacturer
SpaceX/Seattle
Mission
Operational Commercial Communications
Bus & Motor
STARLINK, Unknown motor
Mass
305 kg wet, ~290 kg dry
Launch date (UTC)
2023-02-02 (3 years ago)
Launch vehicle
FALCON 9
Launch site
Air Force Eastern Test Range (AFETR)
Object type
Payload
Rocket body
Debris
Shape & HBR
Box + 1 Pan, 10.1 m
Radar Cross Section
13.562 m², Large (>1 m²)

Expand to show TLE details & history
Last TLE update: 22 hours ago

TLE from 22 hours ago
0 STARLINK-5678
1 55460U 23015M   25352.45836984  .00000261  00000-0  34372-4 0  9997
2 55460  43.0050  47.4694 0001294 270.0787  89.9907 15.02538899158539
Epoch: 2025-12-18T11:00Z
TLE epoch observation values (Epoch: 2025-12-18T11:00:03.154Z)
Latitude
-0.00001°
Longitude
155.14266°
Altitude
558.849 km
Speed
7.584 km/s
True Right ascension
03h 09m 52s
True Declination
0° 00' 00"
Sunlit
Object was in full shadow at epoch
Visualization orbit readout
Latitude
Unknown
Longitude
Unknown
Altitude
Unknown
Speed
Unknown
Apparent Right ascension
Unknown
Apparent Declination
Unknown
Sunlit
N/A
Visualization observer readout
Local Sidereal Time
07:45:52
Azimuth
Unknown
Elevation
Unknown
Doppler factor
Unknown
Orbital elements
Apogee altitude
561.892 km
Perigee altitude
560.096 km
Semi-major axis
6,939.131 km
Eccentricity
0.00013
Inclination
43.005°
RAAN
47.4694°
Arg. of periapsis
270.0787°
True anomaly
90.00553°
Mean anomaly
89.9907°
Eccentric anomaly
89.99811°
Mean motion
3.75479 °/min
Orbital period
95.88 mins
BSTAR
0.000034372
Loading maneuver chart data...
Computing Atmospheric mass density...
Loading historical data...
Loading historical data...
Loading historical data...
Loading historical data...
Loading historical data...
Loading historical data...
Loading historical data...

Documentation

Showing up to 5 results
|